Weather History for Chadron, NE

Change the Weather History Date:

Tuesday, January 21, 2014

  Actual Average Record
Temperature  
Mean Temperature 32 °F 25 °F  
Max Temperature 49 °F 39 °F 69 °F (2009)
Min Temperature 14 °F 10 °F -29 °F (1949)
Degree Days  
Heating Degree Days 33 40  
Month to date heating degree days 743 857  
Since 1 July heating degree days 3806 3799  
Cooling Degree Days 0 0  
Month to date cooling degree days 0 0  
Year to date cooling degree days 0 0  
Moisture  
Dew Point 20 °F    
Average Humidity 61    
Maximum Humidity 92    
Minimum Humidity 29    
Precipitation  
Precipitation 0.00 in 0.01 in 0.66 in (1974)
Month to date precipitation 0.12 0.23  
Year to date precipitation 0.12 0.23  
Sea Level Pressure  
Sea Level Pressure 30.23 in    
Wind  
Wind Speed 10 mph (West)    
Max Wind Speed 33 mph    
Max Gust Speed 75 mph    
Visibility 10 miles    
Events      
T = Trace of Precipitation, MM = Missing Value Source: NWS Daily Summary

Daily Weather History Graph

Daily Weather History Graph

Search for Another Location

Airport:

Trip Planner

Search our weather history database for the weather conditions in past years. The results will help you decide how hot, cold, wet, or windy it might be!

Date:

Astronomy

Jan. 21, 2014 Rise Set
Actual Time 7:16 AM MST 4:51 PM MST
Civil Twilight 6:45 AM MST 5:22 PM MST
Nautical Twilight 6:11 AM MST 5:56 PM MST
Astronomical Twilight 5:37 AM MST 6:30 PM MST
Moon 10:35 PM MST (1/21) 9:39 AM MST (1/21)
Length of Visible Light 10h 36m
Length of Day
9h 34m
Waning Gibbous, 74% of the Moon is Illuminated
Jan 21
Waning Gibbous
Jan 23
Last Quarter
Jan 30
New
Feb 6
First Quarter
Feb 14
Full

Hourly Weather History & Observations

Time (MST) Temp. Windchill Dew Point Humidity Pressure Visibility Wind Dir Wind Speed Gust Speed Precip Events Conditions
12:53 AM 17.1 °F - 14.0 °F 88% 30.39 in 10.0 mi Calm Calm - N/A   Clear
1:53 AM 16.0 °F 10.4 °F 14.0 °F 92% 30.36 in 10.0 mi SW 3.5 mph - N/A   Clear
2:53 AM 16.0 °F - 12.9 °F 88% 30.34 in 10.0 mi Calm Calm - N/A   Clear
3:46 AM 14.0 °F 8.2 °F 12.2 °F 93% 30.17 in 10.0 mi West 3.5 mph 74.8 mph N/A   Squalls
3:53 AM 15.1 °F 9.4 °F 12.0 °F 88% 30.29 in 10.0 mi West 3.5 mph - N/A   Clear
4:53 AM 14.0 °F - 10.9 °F 88% 30.28 in 10.0 mi Calm Calm - N/A   Clear
5:53 AM 19.0 °F 9.0 °F 15.1 °F 85% 30.25 in 10.0 mi WSW 8.1 mph - N/A   Clear
6:53 AM 21.9 °F 9.8 °F 17.1 °F 82% 30.23 in 10.0 mi WSW 12.7 mph - N/A   Clear
7:53 AM 26.1 °F 16.8 °F 21.0 °F 81% 30.23 in 10.0 mi WSW 9.2 mph - N/A   Clear
8:53 AM 33.1 °F 24.9 °F 23.0 °F 66% 30.22 in 10.0 mi West 10.4 mph - N/A   Clear
9:53 AM 36.0 °F 29.6 °F 23.0 °F 59% 30.23 in 10.0 mi WSW 8.1 mph - N/A   Clear
10:53 AM 44.1 °F 35.4 °F 19.0 °F 37% 30.20 in 10.0 mi WNW 21.9 mph 28.8 mph N/A   Mostly Cloudy
11:53 AM 48.0 °F - 19.0 °F 32% 30.15 in 10.0 mi WNW 25.3 mph 33.4 mph N/A   Clear
12:53 PM 48.0 °F - 18.0 °F 30% 30.14 in 10.0 mi WNW 27.6 mph 39.1 mph N/A   Scattered Clouds
1:53 PM 46.0 °F 37.8 °F 17.1 °F 31% 30.14 in 10.0 mi WNW 23.0 mph 28.8 mph N/A   Mostly Cloudy
2:53 PM 46.9 °F - 19.0 °F 33% 30.15 in 10.0 mi WNW 20.7 mph 28.8 mph N/A   Overcast
3:53 PM 45.0 °F 36.9 °F 21.9 °F 40% 30.18 in 10.0 mi WNW 20.7 mph 31.1 mph N/A   Overcast
4:53 PM 42.1 °F 35.2 °F 24.1 °F 49% 30.23 in 10.0 mi NNE 12.7 mph 20.7 mph N/A   Overcast
5:53 PM 37.9 °F 34.4 °F 24.1 °F 57% 30.25 in 10.0 mi ENE 4.6 mph - N/A   Overcast
6:53 PM 35.1 °F 31.0 °F 25.0 °F 67% 30.25 in 10.0 mi SE 4.6 mph - N/A   Overcast
7:53 PM 34.0 °F 31.0 °F 26.1 °F 73% 30.24 in 10.0 mi SW 3.5 mph - N/A   Overcast
8:53 PM 37.0 °F 32.4 °F 26.1 °F 65% 30.21 in 10.0 mi NW 5.8 mph - N/A   Overcast
9:53 PM 37.9 °F 30.9 °F 26.1 °F 62% 30.20 in 10.0 mi NW 10.4 mph - N/A   Overcast
10:53 PM 37.0 °F 31.0 °F 26.1 °F 65% 30.19 in 10.0 mi NNW 8.1 mph - N/A   Overcast
11:53 PM 34.0 °F 29.8 °F 23.0 °F 64% 30.19 in 10.0 mi East 4.6 mph - N/A   Overcast